User: anonymous   Login
Location: Unspecified
(0.0000°N, 0.0000°E)
Time: 21:13:06
(UTC+00:00)
Language:

IGS 6A - Orbit

View from above orbital plane
View from above orbital plane
View from above satellite
View from above satellite

Ground track
Ground track

The orbit data is extracted from the following two-line orbital elements,

1 37813U 11050A   19241.97698759 0.00000000  00000-0  00000-0 0    09
2 37813  97.7659 356.7800 0004090  28.5839 331.4159 14.93593816    09
Epoch (UTC): 29 August 2019 23:26:51
Eccentricity: 0.0004090
inclination: 97.7659°
perigee height: 584 km
apogee height: 589 km
right ascension of ascending node: 356.7800°
argument of perigee: 28.5839°
revolutions per day: 14.93593816
mean anomaly at epoch: 331.4159°
orbit number at epoch: 0

The dashed part of the orbit path shows where the satellite is in the earth's shadow,  

DLR